Weather History for KCWF - January, 2013

Change the Weather History Date:

Sunday, January 20, 2013

  Actual Average Record
Temperature  
Mean Temperature 52 °F -  
Max Temperature 68 °F 60 °F 78 °F (2005)
Min Temperature 37 °F 45 °F 28 °F (2001)
Degree Days  
Heating Degree Days 12    
Growing Degree Days 2 (Base 50)    
Moisture  
Dew Point 42 °F    
Average Humidity 84    
Maximum Humidity 100    
Minimum Humidity 37    
Precipitation  
Precipitation 0.00 in - - ()
Sea Level Pressure  
Sea Level Pressure 30.23 in    
Wind  
Wind Speed 0 mph (SSE)    
Max Wind Speed 7 mph    
Max Gust Speed -    
Visibility 6 miles    
Events      
Averages and records for this station are not official NWS values.
T = Trace of Precipitation, MM = Missing Value Source: NWS Daily Summary

Daily Weather History Graph

Daily Weather History Graph

Search for Another Location

Airport or City:

Trip Planner

Search our weather history database for the weather conditions in past years. The results will help you decide how hot, cold, wet, or windy it might be!

Date:

Astronomy

Jan. 20, 2013 Rise Set
Actual Time 7:08 AM CST 5:39 PM CST
Civil Twilight 6:42 AM CST 6:04 PM CST
Nautical Twilight 6:13 AM CST 6:34 PM CST
Astronomical Twilight 5:44 AM CST 7:02 PM CST
Moon 12:39 PM CST (1/20) 1:43 AM CST (1/20)
Length of Visible Light 11h 22m
Length of Day
10h 30m
Waxing Gibbous, 66% of the Moon is Illuminated
Jan 20
Waxing Gibbous
Jan 26
Full
Feb 3
Last Quarter
Feb 10
New
Feb 17
First Quarter

Hourly Weather History & Observations

Time (CST) Temp. Dew Point Humidity Pressure Visibility Wind Dir Wind Speed Gust Speed Precip Events Conditions
12:15 AM 43.0 °F 41.4 °F 94% 30.28 in 4.0 mi Calm Calm - N/A   Clear
12:35 AM 42.1 °F 40.3 °F 93% 30.28 in 1.0 mi Calm Calm - N/A   Mist
12:55 AM 42.3 °F 40.8 °F 95% 30.28 in 3.0 mi Calm Calm - N/A   Clear
1:15 AM 41.7 °F 40.1 °F 94% 30.28 in 7.0 mi Calm Calm - N/A   Clear
1:35 AM 41.2 °F 39.7 °F 95% 30.28 in 7.0 mi Calm Calm - N/A   Clear
1:55 AM 40.6 °F 39.2 °F 95% 30.27 in 7.0 mi Calm Calm - N/A   Clear
2:15 AM 40.5 °F 39.0 °F 95% 30.27 in 7.0 mi Calm Calm - N/A   Clear
2:35 AM 40.5 °F 39.0 °F 95% 30.27 in 4.0 mi Calm Calm - N/A   Clear
2:55 AM 40.1 °F 38.7 °F 95% 30.26 in 4.0 mi Calm Calm - N/A   Clear
3:15 AM 39.9 °F 38.3 °F 94% 30.26 in 5.0 mi Calm Calm - N/A   Clear
3:35 AM 39.2 °F 37.6 °F 94% 30.26 in 1.2 mi Calm Calm - N/A   Mist
3:55 AM 39.6 °F 38.3 °F 95% 30.26 in 5.0 mi Calm Calm - N/A   Clear
4:15 AM 39.4 °F 38.1 °F 95% 30.25 in 7.0 mi Calm Calm - N/A   Clear
4:35 AM 38.5 °F 37.2 °F 95% 30.25 in 4.0 mi Calm Calm - N/A   Clear
4:55 AM 38.7 °F 37.2 °F 95% 30.25 in 3.0 mi Calm Calm - N/A   Clear
5:15 AM 38.5 °F 36.9 °F 94% 30.25 in 4.0 mi Calm Calm - N/A   Clear
5:35 AM 38.8 °F 37.4 °F 95% 30.25 in 4.0 mi Calm Calm - N/A   Clear
5:55 AM 38.1 °F 36.7 °F 95% 30.25 in 3.0 mi Calm Calm - N/A   Clear
6:00 AM 37.4 °F 37.4 °F 100% 30.25 in 5.0 mi Calm Calm - N/A   Clear
6:50 AM 39.2 °F 37.4 °F 93% 30.25 in 10.0 mi Calm Calm - N/A   Clear
7:50 AM 39.2 °F 37.4 °F 93% 30.26 in 7.0 mi Calm Calm - N/A   Clear
8:50 AM 50.0 °F 46.4 °F 87% 30.27 in 10.0 mi Calm Calm - N/A   Clear
9:50 AM 55.4 °F 48.2 °F 77% 30.29 in 10.0 mi Calm Calm - N/A   Clear
10:50 AM 60.8 °F 50.0 °F 68% 30.29 in 10.0 mi Calm Calm - N/A   Clear
11:50 AM 64.4 °F 48.2 °F 56% 30.25 in 10.0 mi Calm Calm - N/A   Clear
12:50 PM 66.2 °F 42.8 °F 43% 30.21 in 10.0 mi East 4.6 mph - N/A   Clear
1:50 PM 66.2 °F 41.0 °F 40% 30.18 in 10.0 mi Calm Calm - N/A   Clear
2:50 PM 68.0 °F 41.0 °F 37% 30.16 in 10.0 mi Calm Calm - N/A   Clear
3:50 PM 66.2 °F 41.0 °F 40% 30.15 in 10.0 mi Calm Calm - N/A   Clear
4:45 PM 64.4 °F 46.4 °F 52% 30.15 in 10.0 mi Calm Calm - N/A   Clear
5:45 PM 55.4 °F 46.4 °F 72% 30.17 in 10.0 mi SSE 6.9 mph - N/A   Clear
6:45 PM 55.4 °F 48.2 °F 77% 30.18 in 10.0 mi SSW 5.8 mph - N/A   Clear
7:50 PM 53.6 °F 48.2 °F 82% 30.19 in 10.0 mi Calm Calm - N/A   Clear
8:50 PM 51.8 °F 46.4 °F 82% 30.19 in 10.0 mi Calm Calm - N/A   Clear
9:50 PM 48.2 °F 46.4 °F 93% 30.20 in 10.0 mi Calm Calm - N/A   Clear
10:15 PM 48.6 °F 46.6 °F 93% 30.20 in 7.0 mi Calm Calm - N/A   Clear
10:35 PM 48.6 °F 46.8 °F 93% 30.20 in 5.0 mi Calm Calm - N/A   Clear
10:55 PM 47.8 °F 46.0 °F 93% 30.19 in 5.0 mi Calm Calm - N/A   Clear
11:15 PM 46.0 °F 44.2 °F 93% 30.19 in 0.8 mi Calm Calm - N/A   Mist
11:35 PM 46.0 °F 44.4 °F 94% 30.18 in 4.0 mi Calm Calm - N/A   Clear
11:55 PM 46.0 °F 44.4 °F 94% 30.18 in 2.0 mi Calm Calm - N/A   Clear